Regional Weather Roundup
Issued by NWS

Home | Current Version | Previous Version | Text Only | Print | Product List | Glossary Off
Versions: 1 2 3 4 5 6 7 8 9 10 11 12 13 14 15 16 17 18 19 20 21 22 23 24 25 26 27 28 29 30 31 32 33 34 35 36 37 38 39 40 41 42 43 44 45 46 47 48 49 50

000
ASUS43 KLSX 261057
RWRMO

WEATHER SUMMARY FOR MISSOURI
NATIONAL WEATHER SERVICE SPRINGFIELD MO
600 AM CDT SUN MAR 26 2017

NOTE: "FAIR" INDICATES FEW OR NO CLOUDS BELOW 12,000 FEET WITH NO
       SIGNIFICANT WEATHER AND/OR OBSTRUCTIONS TO VISIBILITY.
       CURRENT SKY AND/OR WEATHER CONDITIONS ARE NOT AVAILABLE FOR
       CHILLICOTHE AND FARMINGTON.

MOZ001>031-035>038-043-044-053-054-261200-
...NORTHERN AND WESTERN MISSOURI...

CITY           SKY/WX    TMP DP  RH WIND       PRES   REMARKS
KANSAS CTY INT CLOUDY    43  41  93 CALM      29.89R
LEE`S SUMMIT   CLOUDY    44  43  96 NW7       29.89R
ST JOSEPH      CLOUDY    43  42  97 W7        29.89S
CHILLICOTHE      N/A     43  42  97 VRB6      29.88R
KIRKSVILLE     CLOUDY    45  45 100 W9        29.82R FOG

$$
MOZ066>068-077>081-088>096-101>105-261200-
...SOUTHWEST MISSOURI...

CITY           SKY/WX    TMP DP  RH WIND       PRES   REMARKS
SPRINGFIELD    CLOUDY    47  44  90 W7        29.90R
JOPLIN         CLOUDY    47  45  93 W5        29.93R

$$
MOZ032>034-039>042-045>050-055>058-069>072-261200-
...CENTRAL MISSOURI...

CITY           SKY/WX    TMP DP  RH WIND       PRES   REMARKS
COLUMBIA       NOT AVBL
JEFFERSON CITY CLOUDY    52  48  86 W8        29.86R
ROLLA          CLOUDY    47  46  97 SW10      29.85R
SEDALIA        CLOUDY    48  32  53 W6        29.88R HAZE
WARRENSBURG    CLOUDY    45  43  93 W7        29.89R

$$
MOZ051-052-059>065-261200-
...EAST CENTRAL MISSOURI...

CITY           SKY/WX    TMP DP  RH WIND       PRES   REMARKS
ST LOUIS INTL  CLOUDY    53  47  79 SW10      29.85R

$$
MOZ072>076-082>087-097>100-106>115-261200-
...SOUTH CENTRAL AND SOUTHEAST MISSOURI...

CITY           SKY/WX    TMP DP  RH WIND       PRES   REMARKS
CAPE GIRARDEAU CLOUDY    52  48  86 SW6       29.90R
POPLAR BLUFF   CLOUDY    52  48  86 SW6       29.92R
WEST PLAINS    CLOUDY    48  44  86 SW5       29.91R

$$


USA.gov is the U.S. government's official web portal to all federal, state and local government web resources and services.